Date String (YYYY-MM-DD hh:mm:ss) UTC,Instrument flags,absolute air pressure of the measurement (hPa),sample flow rate (lpm),inlet stack bypass flow (lpm),air temperature of the measurement (°C),ambient temperature measured by the external sensor (°C),aerosol sample conditioner tube jacket temperature (°C),OPC LED temperature (°C),internal box temperature (°C),relative humidity of the measurement (%),span deviation,mass concentration of particles derived from Lorenz-Mie calculation of OPC scattering (μg/m³),mass concentration of particles derived from Lorenz-Mie calculation of OPC scattering (μg/m³),mass concentration of particles derived from Lorenz-Mie calculation of OPC scattering (μg/m³)
DateTimeUTC,F1_M11,P_M11,Q1_M11,Q2_M11,T1_M11,T2_M11,T3_M11,T4_M11,T5_M11,U1_M11,ZSPAN_M11,X0_M11,X2_M11,X1_M11
2023-12-29 18:00:00,SystemResetWarning,0835.4,5.00,000.00,021.4,020.9,000.0,029.5,022.9,8.1,0000.0,0004.23,0000.97,0000.57
2023-12-29 18:01:00,SystemResetWarning,0835.3,5.01,000.00,021.4,020.9,000.0,029.5,022.9,8.1,0000.0,0004.30,0000.99,0000.56
2023-12-29 18:02:00,SystemResetWarning,0835.3,5.00,000.00,021.4,020.9,000.0,029.5,022.9,8.1,0000.0,0004.27,0000.97,0000.56
2023-12-29 18:03:00,SystemResetWarning,0835.3,4.99,000.00,021.4,020.9,000.0,029.5,022.9,8.2,0000.0,0004.25,0000.96,0000.56
2023-12-29 18:04:00,SystemResetWarning,0835.2,5.00,000.00,021.4,020.9,000.0,029.6,023.0,8.2,0000.0,0004.19,0000.93,0000.55
2023-12-29 18:05:00,SystemResetWarning,0835.2,4.99,000.00,021.5,021.0,000.0,029.6,023.0,8.1,0000.0,0004.51,0000.92,0000.54
2023-12-29 18:06:00,SystemResetWarning,0835.3,5.00,000.00,021.5,021.0,000.0,029.6,023.0,7.8,0000.0,0004.54,0000.91,0000.54
2023-12-29 18:07:00,SystemResetWarning,0835.3,5.01,000.00,021.5,021.0,000.0,029.6,023.0,7.7,0000.0,0003.59,0000.93,0000.54
2023-12-29 18:08:00,SystemResetWarning,0835.3,5.00,000.00,021.5,021.0,000.0,029.6,023.0,7.6,0000.0,0002.80,0000.92,0000.54
2023-12-29 18:09:00,SystemResetWarning,0835.3,5.00,000.00,021.5,021.0,000.0,029.6,023.1,7.4,0000.0,0003.02,0000.93,0000.53
2023-12-29 18:10:00,SystemResetWarning,0835.2,5.00,000.00,021.6,021.0,000.0,029.7,023.1,7.4,0000.0,0003.35,0001.02,0000.55
2023-12-29 18:11:00,SystemResetWarning,0835.2,5.01,000.00,021.6,021.1,000.0,029.7,023.1,7.5,0000.0,0003.35,0001.03,0000.56
2023-12-29 18:12:00,SystemResetWarning,0835.1,5.00,000.00,021.6,021.1,000.0,029.7,023.1,7.7,0000.0,0004.16,0001.06,0000.57
2023-12-29 18:13:00,SystemResetWarning,0835.2,4.99,000.00,021.6,021.1,000.0,029.7,023.1,7.8,0000.0,0004.70,0001.11,0000.58
2023-12-29 18:14:00,SystemResetWarning,0835.1,5.00,000.00,021.6,021.1,000.0,029.7,023.1,7.9,0000.0,0005.52,0001.21,0000.59
2023-12-29 18:15:00,SystemResetWarning,0835.1,4.99,000.00,021.6,021.1,000.0,029.8,023.2,7.9,0000.0,0005.54,0001.23,0000.59
2023-12-29 18:16:00,SystemResetWarning,0835.0,5.00,000.00,021.7,021.2,000.0,029.8,023.2,8.1,0000.0,0004.72,0001.19,0000.58
2023-12-29 18:17:00,SystemResetWarning,0835.0,5.00,000.00,021.7,021.2,000.0,029.8,023.2,8.2,0000.0,0004.61,0001.17,0000.56
2023-12-29 18:18:00,SystemResetWarning,0834.9,5.00,000.00,021.7,021.2,000.0,029.8,023.2,8.2,0000.0,0004.84,0001.14,0000.55
2023-12-29 18:19:00,SystemResetWarning,0834.9,5.00,000.00,021.7,021.2,000.0,029.8,023.2,8.3,0000.0,0005.66,0001.09,0000.53
2023-12-29 18:20:00,SystemResetWarning,0835.0,5.00,000.00,021.7,021.2,000.0,029.9,023.3,8.6,0000.0,0006.27,0001.08,0000.51
2023-12-29 18:21:00,SystemResetWarning,0835.3,5.00,000.00,021.7,021.2,000.0,029.9,023.3,8.4,0000.0,0006.22,0001.00,0000.50
2023-12-29 18:22:00,SystemResetWarning,0835.2,4.99,000.00,021.8,021.3,000.0,029.9,023.3,8.4,0000.0,0006.08,0000.96,0000.48
2023-12-29 18:23:00,SystemResetWarning,0835.2,5.00,000.00,021.8,021.3,000.0,029.9,023.3,8.4,0000.0,0005.20,0000.91,0000.45
2023-12-29 18:24:00,SystemResetWarning,0834.8,5.00,000.00,021.8,021.3,000.0,029.9,023.3,8.3,0000.0,0004.57,0000.82,0000.42
2023-12-29 18:25:00,SystemResetWarning,0834.7,5.01,000.00,021.8,021.3,000.0,029.9,023.3,8.3,0000.0,0003.73,0000.70,0000.39
2023-12-29 18:26:00,SystemResetWarning,0834.8,5.00,000.00,021.8,021.3,000.0,030.0,023.3,8.5,0000.0,0003.66,0000.66,0000.37
2023-12-29 18:27:00,SystemResetWarning,0835.0,4.99,000.00,021.9,021.3,000.0,030.0,023.4,8.6,0000.0,0003.83,0000.66,0000.35
2023-12-29 18:28:00,SystemResetWarning,0835.0,5.00,000.00,021.9,021.4,000.0,030.0,023.4,8.5,0000.0,0004.35,0000.62,0000.34
2023-12-29 18:29:00,SystemResetWarning,0834.6,5.00,000.00,021.9,021.4,000.0,030.0,023.4,8.4,0000.0,0004.47,0000.59,0000.32
2023-12-29 18:30:00,SystemResetWarning,0835.0,4.99,000.00,021.9,021.4,000.0,030.0,023.4,8.3,0000.0,0003.62,0000.54,0000.31
2023-12-29 18:31:00,SystemResetWarning,0834.5,5.00,000.00,021.9,021.4,000.0,030.0,023.4,8.3,0000.0,0002.77,0000.49,0000.29
2023-12-29 18:32:00,SystemResetWarning,0834.5,5.00,000.00,021.9,021.4,000.0,030.1,023.4,8.5,0000.0,0002.42,0000.47,0000.27
2023-12-29 18:33:00,SystemResetWarning,0834.5,5.00,000.00,022.0,021.4,000.0,030.1,023.5,8.4,0000.0,0002.37,0000.45,0000.26
2023-12-29 18:34:00,SystemResetWarning,0834.4,5.00,000.00,022.0,021.5,000.0,030.1,023.5,8.5,0000.0,0002.28,0000.41,0000.25
2023-12-29 18:35:00,SystemResetWarning,0834.3,5.00,000.00,022.0,021.5,000.0,030.1,023.5,8.5,0000.0,0002.26,0000.40,0000.24
2023-12-29 18:36:00,SystemResetWarning,0834.3,5.00,000.00,022.0,021.5,000.0,030.1,023.5,8.6,0000.0,0002.28,0000.39,0000.23
2023-12-29 18:37:00,SystemResetWarning,0834.3,5.00,000.00,022.0,021.5,000.0,030.2,023.5,8.6,0000.0,0002.26,0000.38,0000.22
2023-12-29 18:38:00,SystemResetWarning,0834.4,5.00,000.00,022.0,021.5,000.0,030.2,023.6,8.8,0000.0,0002.01,0000.34,0000.21
2023-12-29 18:39:00,SystemResetWarning,0834.3,5.00,000.00,022.1,021.5,000.0,030.2,023.6,8.8,0000.0,0001.62,0000.33,0000.21
2023-12-29 18:40:00,SystemResetWarning,0834.3,4.99,000.00,022.1,021.5,000.0,030.2,023.6,8.8,0000.0,0000.75,0000.33,0000.20
2023-12-29 18:41:00,SystemResetWarning,0834.4,4.99,000.00,022.1,021.6,000.0,030.2,023.6,8.7,0000.0,0000.57,0000.33,0000.20
2023-12-29 18:42:00,SystemResetWarning,0834.3,5.00,000.00,022.1,021.6,000.0,030.2,023.6,8.7,0000.0,0000.58,0000.33,0000.21
2023-12-29 18:43:00,SystemResetWarning,0834.3,5.01,000.00,022.1,021.6,000.0,030.3,023.6,8.5,0000.0,0000.54,0000.31,0000.21
2023-12-29 18:44:00,SystemResetWarning,0834.3,5.01,000.00,022.1,021.6,000.0,030.3,023.6,8.5,0000.0,0000.69,0000.30,0000.21
2023-12-29 18:45:00,SystemResetWarning,0834.4,4.99,000.00,022.1,021.6,000.0,030.3,023.7,8.5,0000.0,0000.72,0000.31,0000.22
2023-12-29 18:46:00,SystemResetWarning,0834.4,4.99,000.00,022.2,021.6,000.0,030.3,023.7,8.6,0000.0,0001.07,0000.33,0000.23
2023-12-29 18:47:00,SystemResetWarning,0834.3,5.00,000.00,022.2,021.7,000.0,030.3,023.7,8.5,0000.0,0002.22,0000.33,0000.24
2023-12-29 18:48:00,SystemResetWarning,0834.2,5.00,000.00,022.2,021.7,000.0,030.3,023.7,8.4,0000.0,0002.24,0000.34,0000.25
2023-12-29 18:49:00,SystemResetWarning,0834.2,5.00,000.00,022.2,021.7,000.0,030.3,023.7,8.4,0000.0,0002.29,0000.37,0000.26
2023-12-29 18:50:00,SystemResetWarning,0834.1,5.00,000.00,022.2,021.7,000.0,030.4,023.8,8.5,0000.0,0002.29,0000.38,0000.26
2023-12-29 18:51:00,SystemResetWarning,0834.1,5.00,000.00,022.2,021.7,000.0,030.4,023.8,8.3,0000.0,0002.34,0000.40,0000.26
2023-12-29 18:52:00,SystemResetWarning,0834.1,5.00,000.00,022.3,021.7,000.0,030.4,023.8,8.3,0000.0,0002.41,0000.43,0000.27
2023-12-29 18:53:00,SystemResetWarning,0834.0,5.01,000.00,022.3,021.7,000.0,030.4,023.8,8.3,0000.0,0002.41,0000.43,0000.26
2023-12-29 18:54:00,SystemResetWarning,0834.0,5.00,000.00,022.3,021.7,000.0,030.4,023.8,8.3,0000.0,0002.39,0000.44,0000.26
2023-12-29 18:55:00,SystemResetWarning,0834.0,4.99,000.00,022.3,021.8,000.0,030.4,023.8,8.4,0000.0,0002.24,0000.45,0000.26
2023-12-29 18:56:00,SystemResetWarning,0834.0,5.00,000.00,022.3,021.8,000.0,030.5,023.8,8.3,0000.0,0002.29,0000.47,0000.26
2023-12-29 18:57:00,SystemResetWarning,0834.0,4.99,000.00,022.3,021.8,000.0,030.5,023.9,8.3,0000.0,0002.07,0000.47,0000.26
2023-12-29 18:58:00,SystemResetWarning,0834.0,4.99,000.00,022.4,021.8,000.0,030.5,023.9,8.3,0000.0,0000.87,0000.47,0000.25
2023-12-29 18:59:00,SystemResetWarning,0833.9,5.00,000.00,022.4,021.8,000.0,030.5,023.9,8.3,0000.0,0001.25,0000.48,0000.24
